User: anonymous   Login
Location: Sungai Bunut
(2.6333°N, 113.7333°E)
Time: 05:30:30
(UTC+00:00)
Language:

ARIANE 5 R/B - Orbit

View from above orbital plane
View from above orbital plane
View from above satellite
View from above satellite

Ground track
Ground track

The orbit data is extracted from the following two-line orbital elements,

1 37777U 11041C   22017.37155636  .00000932  00000-0  49847-3 0  9995
2 37777   1.8840 279.6617 7150803 236.0062  35.8475  2.43459252 90675
Epoch (UTC): 17 January 2022 08:55:02
Eccentricity: 0.7150803
inclination: 1.8840°
perigee height: 272 km
apogee height: 33653 km
right ascension of ascending node: 279.6617°
argument of perigee: 236.0062°
revolutions per day: 2.43459252
mean anomaly at epoch: 35.8475°
orbit number at epoch: 9067

The dashed part of the orbit path shows where the satellite is in the earth's shadow,  

DLR